Time,TemperatureF,DewpointF,PressureIn,WindDirection,WindDirectionDegrees,WindSpeedMPH,WindSpeedGustMPH,Humidity,HourlyPrecipIn,Conditions,Clouds,dailyrainin,SoftwareType,DateUTC
2013-01-01 00:00:00,31.1,24.7,29.98,SE,134,0.0,0.0,77,0.00,CLR,,0.00,WeatherDisplay:10.37,2013-01-01 05:00:00,
2013-01-01 00:05:00,31.1,24.8,29.98,ESE,113,0.0,0.0,77,0.00,CLR,,0.00,WeatherDisplay:10.37,2013-01-01 05:05:00,
2013-01-01 00:10:00,31.1,24.7,29.97,East,97,0.0,0.0,77,0.00,CLR,,0.00,WeatherDisplay:10.37,2013-01-01 05:10:00,
2013-01-01 00:20:00,31.1,24.8,29.97,East,85,0.0,0.0,77,0.00,CLR,,0.00,WeatherDisplay:10.37,2013-01-01 05:20:00,
2013-01-01 00:25:00,31.1,24.7,29.96,East,96,0.0,0.0,77,0.00,CLR,,0.00,WeatherDisplay:10.37,2013-01-01 05:25:00,
2013-01-01 00:30:00,31.1,24.7,29.97,ESE,105,0.0,0.0,77,0.00,CLR,,0.00,WeatherDisplay:10.37,2013-01-01 05:30:00,
2013-01-01 00:35:00,31.1,24.7,29.98,East,94,0.0,0.0,77,0.00,CLR,,0.00,WeatherDisplay:10.37,2013-01-01 05:35:00,
2013-01-01 00:40:00,31.1,24.7,29.98,East,99,0.0,0.0,77,0.00,CLR,,0.00,WeatherDisplay:10.37,2013-01-01 05:40:00,
2013-01-01 00:45:00,31.1,24.7,29.97,East,99,0.0,0.0,77,0.00,CLR,,0.00,WeatherDisplay:10.37,2013-01-01 05:45:00,
2013-01-01 00:50:00,31.3,24.9,29.97,SE,127,0.0,0.0,77,0.00,CLR,,0.00,WeatherDisplay:10.37,2013-01-01 05:50:00,
2013-01-01 00:55:00,31.1,24.7,29.95,ESE,120,0.0,0.0,77,0.00,CLR,,0.00,WeatherDisplay:10.37,2013-01-01 05:55:00,
2013-01-01 01:00:00,31.1,24.7,29.95,ESE,112,0.0,0.0,77,0.00,CLR,,0.00,WeatherDisplay:10.37,2013-01-01 06:00:00,
2013-01-01 01:05:00,31.1,24.7,29.95,ESE,112,0.0,0.0,77,0.00,CLR,,0.00,WeatherDisplay:10.37,2013-01-01 06:05:00,
2013-01-01 01:10:00,31.1,24.7,29.95,ESE,112,0.0,0.0,77,0.00,CLR,,0.00,WeatherDisplay:10.37,2013-01-01 06:10:00,
2013-01-01 01:15:00,31.1,25.0,29.96,SE,145,0.0,0.0,78,0.00,CLR,,0.00,WeatherDisplay:10.37,2013-01-01 06:15:00,
2013-01-01 01:20:00,31.1,25.0,29.96,WSW,251,0.0,0.0,78,0.00,CLR,,0.00,WeatherDisplay:10.37,2013-01-01 06:20:00,
2013-01-01 01:25:00,31.1,25.0,29.97,WSW,247,0.0,0.0,78,0.00,CLR,,0.00,WeatherDisplay:10.37,2013-01-01 06:25:00,
2013-01-01 01:30:00,31.1,25.0,29.95,SSW,192,0.0,0.0,78,0.00,CLR,,0.00,WeatherDisplay:10.37,2013-01-01 06:30:00,
2013-01-01 01:35:00,31.1,25.0,29.96,ESE,113,0.0,0.0,78,0.00,CLR,,0.00,WeatherDisplay:10.37,2013-01-01 06:35:00,
2013-01-01 01:40:00,31.1,25.0,29.97,East,82,0.0,0.0,78,0.00,CLR,,0.00,WeatherDisplay:10.37,2013-01-01 06:40:00,
2013-01-01 01:45:00,31.1,25.0,29.95,ENE,59,0.0,0.0,78,0.00,CLR,,0.00,WeatherDisplay:10.37,2013-01-01 06:45:00,
2013-01-01 01:50:00,31.3,25.2,29.95,NE,49,0.0,0.0,78,0.00,CLR,,0.00,WeatherDisplay:10.37,2013-01-01 06:50:00,
2013-01-01 01:55:00,31.3,25.2,29.95,ENE,61,0.0,0.0,78,0.00,CLR,,0.00,WeatherDisplay:10.37,2013-01-01 06:55:00,
2013-01-01 02:00:00,31.1,25.0,29.95,ENE,68,0.0,0.0,78,0.00,CLR,,0.00,WeatherDisplay:10.37,2013-01-01 07:00:00,
2013-01-01 02:05:00,31.1,25.0,29.95,ENE,68,0.0,0.0,78,0.00,CLR,,0.00,WeatherDisplay:10.37,2013-01-01 07:05:00,
2013-01-01 02:10:00,31.1,25.0,29.95,ENE,68,0.0,0.0,78,0.00,CLR,,0.00,WeatherDisplay:10.37,2013-01-01 07:10:00,
2013-01-01 02:20:00,30.9,25.2,29.95,East,98,0.0,0.0,79,0.00,CLR,,0.00,WeatherDisplay:10.37,2013-01-01 07:20:00,
2013-01-01 02:25:00,30.9,25.2,29.96,SE,132,0.0,0.0,79,0.00,CLR,,0.00,WeatherDisplay:10.37,2013-01-01 07:25:00,
2013-01-01 02:30:00,31.0,25.3,29.94,East,96,0.0,0.0,79,0.00,CLR,,0.00,WeatherDisplay:10.37,2013-01-01 07:30:00,
2013-01-01 02:35:00,31.0,25.2,29.96,ENE,72,0.0,0.0,79,0.00,CLR,,0.00,WeatherDisplay:10.37,2013-01-01 07:35:00,
2013-01-01 02:40:00,31.1,25.3,29.96,East,96,0.0,0.0,79,0.00,CLR,,0.00,WeatherDisplay:10.37,2013-01-01 07:40:00,
2013-01-01 02:45:00,31.0,25.3,29.96,ESE,112,0.0,0.0,79,0.00,CLR,,0.00,WeatherDisplay:10.37,2013-01-01 07:45:00,
2013-01-01 02:50:00,31.1,25.3,29.96,ESE,112,0.0,0.0,79,0.00,CLR,,0.00,WeatherDisplay:10.37,2013-01-01 07:50:00,
2013-01-01 02:55:00,31.1,25.3,29.96,ESE,112,0.0,0.0,79,0.00,CLR,,0.00,WeatherDisplay:10.37,2013-01-01 07:55:00,
2013-01-01 03:00:00,31.1,25.7,29.96,ESE,112,0.0,0.0,80,0.00,CLR,,0.00,WeatherDisplay:10.37,2013-01-01 08:00:00,
2013-01-01 03:05:00,31.1,25.7,29.96,ESE,112,0.0,0.0,80,0.00,CLR,,0.00,WeatherDisplay:10.37,2013-01-01 08:05:00,
2013-01-01 03:10:00,31.1,25.7,29.96,ESE,112,0.0,0.0,80,0.00,CLR,,0.00,WeatherDisplay:10.37,2013-01-01 08:10:00,
2013-01-01 03:15:00,31.1,25.7,29.95,ESE,112,0.0,0.0,80,0.00,CLR,,0.00,WeatherDisplay:10.37,2013-01-01 08:15:00,
2013-01-01 03:20:00,31.1,25.7,29.95,ESE,112,0.0,0.0,80,0.00,CLR,,0.00,WeatherDisplay:10.37,2013-01-01 08:20:00,
2013-01-01 03:25:00,30.9,25.5,29.96,ESE,112,0.0,0.0,80,0.00,CLR,,0.00,WeatherDisplay:10.37,2013-01-01 08:25:00,
2013-01-01 03:30:00,30.9,25.5,29.94,ESE,112,0.0,0.0,80,0.00,CLR,,0.00,WeatherDisplay:10.37,2013-01-01 08:30:00,
2013-01-01 03:35:00,30.9,25.5,29.95,ESE,112,0.0,0.0,80,0.00,CLR,,0.00,WeatherDisplay:10.37,2013-01-01 08:35:00,
2013-01-01 03:40:00,30.9,25.8,29.95,ESE,112,0.0,0.0,81,0.00,CLR,,0.00,WeatherDisplay:10.37,2013-01-01 08:40:00,
2013-01-01 03:45:00,30.9,25.8,29.95,ESE,112,0.0,0.0,81,0.00,CLR,,0.00,WeatherDisplay:10.37,2013-01-01 08:45:00,
2013-01-01 03:50:00,30.9,25.8,29.96,ESE,112,0.0,0.0,81,0.00,CLR,,0.00,WeatherDisplay:10.37,2013-01-01 08:50:00,
2013-01-01 03:55:00,30.9,25.8,29.96,ESE,112,0.0,0.0,81,0.00,CLR,,0.00,WeatherDisplay:10.37,2013-01-01 08:55:00,
2013-01-01 04:00:00,30.7,25.6,29.96,ESE,112,0.0,0.0,81,0.00,CLR,,0.00,WeatherDisplay:10.37,2013-01-01 09:00:00,
2013-01-01 04:05:00,30.7,25.6,29.96,ESE,112,0.0,0.0,81,0.00,CLR,,0.00,WeatherDisplay:10.37,2013-01-01 09:05:00,
2013-01-01 04:10:00,30.7,25.6,29.96,ESE,112,0.0,0.0,81,0.00,CLR,,0.00,WeatherDisplay:10.37,2013-01-01 09:10:00,
2013-01-01 04:15:00,30.7,25.9,29.95,ESE,112,0.0,0.0,82,0.00,CLR,,0.00,WeatherDisplay:10.37,2013-01-01 09:15:00,
2013-01-01 04:20:00,30.7,25.9,29.95,ESE,112,0.0,0.0,82,0.00,CLR,,0.00,WeatherDisplay:10.37,2013-01-01 09:20:00,
2013-01-01 04:25:00,30.7,25.9,29.95,ESE,112,0.0,0.0,82,0.00,CLR,,0.00,WeatherDisplay:10.37,2013-01-01 09:25:00,
2013-01-01 04:30:00,30.7,25.9,29.95,ESE,112,0.0,0.0,82,0.00,CLR,,0.00,WeatherDisplay:10.37,2013-01-01 09:30:00,
2013-01-01 04:35:00,30.6,25.7,29.95,ESE,112,0.0,0.0,82,0.00,CLR,,0.00,WeatherDisplay:10.37,2013-01-01 09:35:00,
2013-01-01 04:40:00,30.7,25.9,29.95,ESE,112,0.0,0.0,82,0.00,CLR,,0.00,WeatherDisplay:10.37,2013-01-01 09:40:00,
2013-01-01 04:45:00,30.7,26.2,29.95,ESE,107,0.0,0.0,83,0.00,CLR,,0.00,WeatherDisplay:10.37,2013-01-01 09:45:00,
2013-01-01 04:50:00,30.6,26.0,29.95,East,96,0.0,0.0,83,0.00,CLR,,0.00,WeatherDisplay:10.37,2013-01-01 09:50:00,
2013-01-01 04:55:00,30.6,26.0,29.95,East,90,0.0,0.0,83,0.00,CLR,,0.00,WeatherDisplay:10.37,2013-01-01 09:55:00,
2013-01-01 05:00:00,30.6,26.0,29.94,East,90,0.0,0.0,83,0.00,CLR,,0.00,WeatherDisplay:10.37,2013-01-01 10:00:00,
2013-01-01 05:05:00,30.7,26.2,29.94,East,90,0.0,0.0,83,0.00,CLR,,0.00,WeatherDisplay:10.37,2013-01-01 10:05:00,
2013-01-01 05:10:00,30.6,26.0,29.94,East,98,0.0,0.0,83,0.00,CLR,,0.00,WeatherDisplay:10.37,2013-01-01 10:10:00,
2013-01-01 05:15:00,30.6,26.0,29.94,ESE,109,0.0,0.0,83,0.00,CLR,,0.00,WeatherDisplay:10.37,2013-01-01 10:15:00,
2013-01-01 05:20:00,30.6,26.3,29.94,ESE,112,0.0,0.0,84,0.00,CLR,,0.00,WeatherDisplay:10.37,2013-01-01 10:20:00,
2013-01-01 05:25:00,30.6,26.3,29.94,ESE,112,0.0,0.0,84,0.00,CLR,,0.00,WeatherDisplay:10.37,2013-01-01 10:25:00,
2013-01-01 05:30:00,30.6,26.3,29.94,ESE,112,0.0,0.0,84,0.00,CLR,,0.00,WeatherDisplay:10.37,2013-01-01 10:30:00,
2013-01-01 05:35:00,30.6,26.3,29.93,ESE,112,0.0,0.0,84,0.00,CLR,,0.00,WeatherDisplay:10.37,2013-01-01 10:35:00,
2013-01-01 05:40:00,30.6,26.3,29.94,ESE,112,0.0,0.0,84,0.00,CLR,,0.00,WeatherDisplay:10.37,2013-01-01 10:40:00,
2013-01-01 05:45:00,30.7,26.5,29.94,ESE,112,0.0,0.0,84,0.00,CLR,,0.00,WeatherDisplay:10.37,2013-01-01 10:45:00,
2013-01-01 05:50:00,30.6,26.3,29.94,East,100,0.0,0.0,84,0.00,CLR,,0.00,WeatherDisplay:10.37,2013-01-01 10:50:00,
2013-01-01 05:55:00,30.6,26.3,29.94,East,90,0.0,0.0,84,0.00,CLR,,0.00,WeatherDisplay:10.37,2013-01-01 10:55:00,
2013-01-01 06:00:00,30.7,26.5,29.95,East,90,0.0,0.0,84,0.00,CLR,,0.00,WeatherDisplay:10.37,2013-01-01 11:00:00,
2013-01-01 06:05:00,30.7,26.5,29.95,East,90,0.0,0.0,84,0.00,CLR,,0.00,WeatherDisplay:10.37,2013-01-01 11:05:00,
2013-01-01 06:15:00,30.6,26.3,29.95,East,90,0.0,0.0,84,0.00,CLR,,0.00,WeatherDisplay:10.37,2013-01-01 11:15:00,
2013-01-01 06:25:00,30.6,26.3,29.94,East,90,0.0,0.0,84,0.00,CLR,,0.00,WeatherDisplay:10.37,2013-01-01 11:25:00,
2013-01-01 06:30:00,30.6,26.3,29.94,East,90,0.0,0.0,84,0.00,CLR,,0.00,WeatherDisplay:10.37,2013-01-01 11:30:00,
2013-01-01 06:35:00,30.6,26.6,29.93,East,90,0.0,0.0,85,0.00,CLR,,0.00,WeatherDisplay:10.37,2013-01-01 11:35:00,
2013-01-01 06:40:00,30.6,26.6,29.94,East,90,0.0,0.0,85,0.00,CLR,,0.00,WeatherDisplay:10.37,2013-01-01 11:40:00,
2013-01-01 06:45:00,30.6,26.6,29.94,East,90,0.0,0.0,85,0.00,CLR,,0.00,WeatherDisplay:10.37,2013-01-01 11:45:00,
2013-01-01 06:50:00,30.4,26.4,29.95,East,90,0.0,0.0,85,0.00,CLR,,0.00,WeatherDisplay:10.37,2013-01-01 11:50:00,
2013-01-01 06:55:00,30.4,26.4,29.94,East,90,0.0,0.0,85,0.00,CLR,,0.00,WeatherDisplay:10.37,2013-01-01 11:55:00,
2013-01-01 07:00:00,30.4,26.4,29.94,East,90,0.0,0.0,85,0.00,CLR,,0.00,WeatherDisplay:10.37,2013-01-01 12:00:00,
2013-01-01 07:05:00,30.4,26.4,29.94,East,90,0.0,0.0,85,0.00,CLR,,0.00,WeatherDisplay:10.37,2013-01-01 12:05:00,
2013-01-01 07:10:00,30.4,26.4,29.94,East,90,0.0,0.0,85,0.00,CLR,,0.00,WeatherDisplay:10.37,2013-01-01 12:10:00,
2013-01-01 07:15:00,30.4,26.4,29.94,East,90,0.0,0.0,85,0.00,CLR,,0.00,WeatherDisplay:10.37,2013-01-01 12:15:00,
2013-01-01 07:20:00,30.4,26.4,29.94,East,90,0.0,0.0,85,0.00,CLR,,0.00,WeatherDisplay:10.37,2013-01-01 12:20:00,
2013-01-01 07:25:00,30.4,26.4,29.95,East,90,0.0,0.0,85,0.00,CLR,,0.00,WeatherDisplay:10.37,2013-01-01 12:25:00,
2013-01-01 07:30:00,30.4,26.4,29.95,East,90,0.0,0.0,85,0.00,CLR,,0.00,WeatherDisplay:10.37,2013-01-01 12:30:00,
2013-01-01 07:35:00,30.3,26.4,29.95,East,90,0.0,0.0,85,0.00,CLR,,0.00,WeatherDisplay:10.37,2013-01-01 12:35:00,
2013-01-01 07:40:00,30.2,26.2,29.95,East,90,0.0,0.0,85,0.00,CLR,,0.00,WeatherDisplay:10.37,2013-01-01 12:40:00,
2013-01-01 07:45:00,30.4,26.4,29.95,East,90,0.0,0.0,85,0.00,CLR,,0.00,WeatherDisplay:10.37,2013-01-01 12:45:00,
2013-01-01 07:50:00,30.4,26.4,29.95,East,90,0.0,0.0,85,0.00,CLR,,0.00,WeatherDisplay:10.37,2013-01-01 12:50:00,
2013-01-01 08:00:00,30.4,26.4,29.95,East,90,0.0,0.0,85,0.00,CLR,,0.00,WeatherDisplay:10.37,2013-01-01 13:00:00,
2013-01-01 08:05:00,30.3,26.4,29.94,East,90,0.0,0.0,85,0.00,CLR,,0.00,WeatherDisplay:10.37,2013-01-01 13:05:00,
2013-01-01 08:10:00,30.4,26.4,29.95,East,90,0.0,0.0,85,0.00,CLR,,0.00,WeatherDisplay:10.37,2013-01-01 13:10:00,
2013-01-01 08:15:00,30.4,26.4,29.95,East,90,0.0,0.0,85,0.00,CLR,,0.00,WeatherDisplay:10.37,2013-01-01 13:15:00,
2013-01-01 08:20:00,30.3,26.3,29.95,East,90,0.0,0.0,85,0.00,CLR,,0.00,WeatherDisplay:10.37,2013-01-01 13:20:00,
2013-01-01 08:25:00,30.4,26.7,29.95,East,90,0.0,0.0,86,0.00,CLR,,0.00,WeatherDisplay:10.37,2013-01-01 13:25:00,
2013-01-01 08:30:00,30.4,26.7,29.95,East,90,0.0,0.0,86,0.00,CLR,,0.00,WeatherDisplay:10.37,2013-01-01 13:30:00,
2013-01-01 08:35:00,30.4,26.7,29.95,East,90,0.0,0.0,86,0.00,CLR,,0.00,WeatherDisplay:10.37,2013-01-01 13:35:00,
2013-01-01 08:40:00,30.4,26.7,29.95,East,90,0.0,0.0,86,0.00,CLR,,0.00,WeatherDisplay:10.37,2013-01-01 13:40:00,
2013-01-01 08:45:00,30.4,26.7,29.96,East,90,0.0,0.0,86,0.00,CLR,,0.00,WeatherDisplay:10.37,2013-01-01 13:45:00,
2013-01-01 08:50:00,30.5,26.8,29.96,East,90,0.0,0.0,86,0.00,CLR,,0.00,WeatherDisplay:10.37,2013-01-01 13:50:00,
2013-01-01 08:55:00,30.6,26.9,29.97,East,90,0.0,0.0,86,0.00,CLR,,0.00,WeatherDisplay:10.37,2013-01-01 13:55:00,
2013-01-01 09:00:00,30.7,27.0,29.96,East,90,0.0,0.0,86,0.00,CLR,,0.00,WeatherDisplay:10.37,2013-01-01 14:00:00,
2013-01-01 09:05:00,30.7,27.0,29.95,East,90,0.0,0.0,86,0.00,CLR,,0.00,WeatherDisplay:10.37,2013-01-01 14:05:00,
2013-01-01 09:10:00,30.9,27.2,29.95,East,90,0.0,0.0,86,0.00,CLR,,0.00,WeatherDisplay:10.37,2013-01-01 14:10:00,
2013-01-01 09:15:00,30.9,27.2,29.95,East,90,0.0,0.0,86,0.00,CLR,,0.00,WeatherDisplay:10.37,2013-01-01 14:15:00,
2013-01-01 09:20:00,30.9,27.2,29.96,East,90,0.0,0.0,86,0.00,CLR,,0.00,WeatherDisplay:10.37,2013-01-01 14:20:00,
2013-01-01 09:25:00,31.1,27.4,29.96,East,90,0.0,0.0,86,0.00,CLR,,0.00,WeatherDisplay:10.37,2013-01-01 14:25:00,
2013-01-01 09:30:00,31.1,27.4,29.96,East,90,0.0,0.0,86,0.00,CLR,,0.00,WeatherDisplay:10.37,2013-01-01 14:30:00,
2013-01-01 09:35:00,31.2,27.5,29.96,East,90,0.0,0.0,86,0.00,CLR,,0.00,WeatherDisplay:10.37,2013-01-01 14:35:00,
2013-01-01 09:40:00,31.3,27.6,29.96,East,90,0.0,0.0,86,0.00,CLR,,0.00,WeatherDisplay:10.37,2013-01-01 14:40:00,
2013-01-01 09:45:00,31.3,27.6,29.96,East,90,0.0,0.0,86,0.00,CLR,,0.00,WeatherDisplay:10.37,2013-01-01 14:45:00,
2013-01-01 09:50:00,31.4,27.7,29.95,East,90,0.0,0.0,86,0.00,CLR,,0.00,WeatherDisplay:10.37,2013-01-01 14:50:00,
2013-01-01 09:55:00,31.5,27.8,29.96,East,90,0.0,0.0,86,0.00,CLR,,0.00,WeatherDisplay:10.37,2013-01-01 14:55:00,
2013-01-01 10:00:00,31.5,27.8,29.96,East,90,0.0,0.0,86,0.00,CLR,,0.00,WeatherDisplay:10.37,2013-01-01 15:00:00,
2013-01-01 10:05:00,31.5,27.8,29.96,East,90,0.0,0.0,86,0.00,CLR,,0.00,WeatherDisplay:10.37,2013-01-01 15:05:00,
2013-01-01 10:10:00,31.6,27.9,29.96,East,90,0.0,0.0,86,0.00,CLR,,0.00,WeatherDisplay:10.37,2013-01-01 15:10:00,
2013-01-01 10:15:00,31.8,28.1,29.97,East,90,0.0,0.0,86,0.00,CLR,,0.00,WeatherDisplay:10.37,2013-01-01 15:15:00,
2013-01-01 10:20:00,31.6,27.9,29.97,East,90,0.0,0.0,86,0.00,CLR,,0.00,WeatherDisplay:10.37,2013-01-01 15:20:00,
2013-01-01 10:25:00,31.8,28.1,29.97,East,90,0.0,0.0,86,0.00,CLR,,0.00,WeatherDisplay:10.37,2013-01-01 15:25:00,
2013-01-01 10:30:00,32.0,28.3,29.97,East,90,0.0,0.0,86,0.00,CLR,,0.00,WeatherDisplay:10.37,2013-01-01 15:30:00,
2013-01-01 10:35:00,32.2,28.5,29.98,East,90,0.0,0.0,86,0.00,CLR,,0.00,WeatherDisplay:10.37,2013-01-01 15:35:00,
2013-01-01 10:40:00,32.2,28.5,29.99,East,90,0.0,0.0,86,0.00,CLR,,0.00,WeatherDisplay:10.37,2013-01-01 15:40:00,
2013-01-01 10:45:00,32.2,28.5,29.98,East,90,0.0,0.0,86,0.00,CLR,,0.00,WeatherDisplay:10.37,2013-01-01 15:45:00,
2013-01-01 10:50:00,32.2,28.2,29.98,East,90,0.0,0.0,85,0.00,CLR,,0.00,WeatherDisplay:10.37,2013-01-01 15:50:00,
2013-01-01 10:55:00,32.2,28.2,29.98,East,90,0.0,0.0,85,0.00,CLR,,0.00,WeatherDisplay:10.37,2013-01-01 15:55:00,
2013-01-01 11:00:00,32.3,28.3,29.98,East,90,0.0,0.0,85,0.00,CLR,,0.00,WeatherDisplay:10.37,2013-01-01 16:00:00,
2013-01-01 11:05:00,32.4,28.4,29.98,East,90,0.0,0.0,85,0.00,CLR,,0.00,WeatherDisplay:10.37,2013-01-01 16:05:00,
2013-01-01 11:10:00,32.4,28.4,29.98,East,90,0.0,0.0,85,0.00,CLR,,0.00,WeatherDisplay:10.37,2013-01-01 16:10:00,
2013-01-01 11:15:00,32.2,28.2,29.97,East,90,0.0,0.0,85,0.00,CLR,,0.00,WeatherDisplay:10.37,2013-01-01 16:15:00,
2013-01-01 11:20:00,32.2,28.2,29.97,East,90,0.0,0.0,85,0.00,CLR,,0.00,WeatherDisplay:10.37,2013-01-01 16:20:00,
2013-01-01 11:25:00,32.2,28.2,29.97,East,90,0.0,0.0,85,0.00,CLR,,0.00,WeatherDisplay:10.37,2013-01-01 16:25:00,
2013-01-01 11:30:00,32.2,27.9,29.97,East,90,0.0,0.0,84,0.00,CLR,,0.00,WeatherDisplay:10.37,2013-01-01 16:30:00,
2013-01-01 11:35:00,32.2,27.9,29.96,East,90,0.0,0.0,84,0.00,CLR,,0.00,WeatherDisplay:10.37,2013-01-01 16:35:00,
2013-01-01 11:40:00,32.1,27.8,29.95,East,90,0.0,0.0,84,0.00,CLR,,0.00,WeatherDisplay:10.37,2013-01-01 16:40:00,
2013-01-01 11:45:00,32.2,27.9,29.95,East,90,0.0,0.0,84,0.00,CLR,,0.00,WeatherDisplay:10.37,2013-01-01 16:45:00,
2013-01-01 11:50:00,32.2,27.6,29.94,East,90,0.0,0.0,83,0.00,CLR,,0.00,WeatherDisplay:10.37,2013-01-01 16:50:00,
2013-01-01 11:55:00,32.1,27.5,29.94,East,90,0.0,0.0,83,0.00,CLR,,0.00,WeatherDisplay:10.37,2013-01-01 16:55:00,
2013-01-01 12:00:00,32.2,27.6,29.94,East,90,0.0,0.0,83,0.00,CLR,,0.00,WeatherDisplay:10.37,2013-01-01 17:00:00,
2013-01-01 12:05:00,32.2,27.3,29.94,East,90,0.0,0.0,82,0.00,CLR,,0.00,WeatherDisplay:10.37,2013-01-01 17:05:00,
2013-01-01 12:10:00,32.2,27.3,29.93,East,90,0.0,0.0,82,0.00,CLR,,0.00,WeatherDisplay:10.37,2013-01-01 17:10:00,
2013-01-01 12:20:00,32.2,27.3,29.93,East,90,0.0,0.0,82,0.00,CLR,,0.00,WeatherDisplay:10.37,2013-01-01 17:20:00,
2013-01-01 12:25:00,32.2,27.0,29.93,East,90,0.0,0.0,81,0.00,CLR,,0.00,WeatherDisplay:10.37,2013-01-01 17:25:00,
2013-01-01 12:30:00,32.2,27.0,29.93,East,90,0.0,0.0,81,0.00,CLR,,0.00,WeatherDisplay:10.37,2013-01-01 17:30:00,
2013-01-01 12:35:00,32.4,27.2,29.93,East,90,0.0,0.0,81,0.00,CLR,,0.00,WeatherDisplay:10.37,2013-01-01 17:35:00,
2013-01-01 12:40:00,32.2,27.0,29.93,East,90,0.0,0.0,81,0.00,CLR,,0.00,WeatherDisplay:10.37,2013-01-01 17:40:00,
2013-01-01 12:45:00,32.4,27.2,29.93,East,90,0.0,0.0,81,0.00,CLR,,0.00,WeatherDisplay:10.37,2013-01-01 17:45:00,
2013-01-01 12:50:00,32.4,26.9,29.93,East,90,0.0,0.0,80,0.00,CLR,,0.00,WeatherDisplay:10.37,2013-01-01 17:50:00,
2013-01-01 12:55:00,32.4,26.9,29.93,East,90,0.0,0.0,80,0.00,CLR,,0.00,WeatherDisplay:10.37,2013-01-01 17:55:00,
2013-01-01 13:00:00,32.4,26.9,29.93,East,90,0.0,0.0,80,0.00,CLR,,0.00,WeatherDisplay:10.37,2013-01-01 18:00:00,
2013-01-01 13:05:00,32.4,26.9,29.93,East,90,0.0,0.0,80,0.00,CLR,,0.00,WeatherDisplay:10.37,2013-01-01 18:05:00,
2013-01-01 13:10:00,32.2,26.7,29.92,East,90,0.0,0.0,80,0.00,CLR,,0.00,WeatherDisplay:10.37,2013-01-01 18:10:00,
2013-01-01 13:15:00,32.2,26.4,29.93,East,90,0.0,0.0,79,0.00,CLR,,0.00,WeatherDisplay:10.37,2013-01-01 18:15:00,
2013-01-01 13:20:00,32.2,26.4,29.93,East,90,0.0,0.0,79,0.00,CLR,,0.00,WeatherDisplay:10.37,2013-01-01 18:20:00,
2013-01-01 13:30:00,32.2,26.4,29.92,East,90,0.0,0.0,79,0.00,CLR,,0.00,WeatherDisplay:10.37,2013-01-01 18:30:00,
2013-01-01 13:35:00,32.2,26.4,29.93,East,90,0.0,0.0,79,0.00,CLR,,0.00,WeatherDisplay:10.37,2013-01-01 18:35:00,
2013-01-01 13:40:00,32.1,26.3,29.92,East,90,0.0,0.0,79,0.00,CLR,,0.00,WeatherDisplay:10.37,2013-01-01 18:40:00,
2013-01-01 13:45:00,32.2,26.4,29.93,East,90,0.0,0.0,79,0.00,CLR,,0.00,WeatherDisplay:10.37,2013-01-01 18:45:00,
2013-01-01 13:50:00,31.8,25.7,29.92,East,90,0.0,0.0,78,0.00,CLR,,0.00,WeatherDisplay:10.37,2013-01-01 18:50:00,
2013-01-01 13:55:00,31.8,25.7,29.92,East,90,0.0,0.0,78,0.00,CLR,,0.00,WeatherDisplay:10.37,2013-01-01 18:55:00,
2013-01-01 14:00:00,31.6,25.6,29.92,East,90,0.0,0.0,78,0.00,CLR,,0.00,WeatherDisplay:10.37,2013-01-01 19:00:00,
2013-01-01 14:05:00,31.6,25.5,29.92,East,90,0.0,0.0,78,0.00,CLR,,0.00,WeatherDisplay:10.37,2013-01-01 19:05:00,
2013-01-01 14:10:00,31.6,25.6,29.92,East,90,0.0,0.0,78,0.00,CLR,,0.00,WeatherDisplay:10.37,2013-01-01 19:10:00,
2013-01-01 14:15:00,31.5,25.1,29.93,East,90,0.0,0.0,77,0.00,CLR,,0.00,WeatherDisplay:10.37,2013-01-01 19:15:00,
2013-01-01 14:20:00,31.5,25.1,29.93,East,90,0.0,0.0,77,0.00,CLR,,0.00,WeatherDisplay:10.37,2013-01-01 19:20:00,
2013-01-01 14:25:00,31.5,25.1,29.93,East,90,0.0,0.0,77,0.00,CLR,,0.00,WeatherDisplay:10.37,2013-01-01 19:25:00,
2013-01-01 14:30:00,31.5,25.1,29.93,East,90,0.0,0.0,77,0.00,CLR,,0.00,WeatherDisplay:10.37,2013-01-01 19:30:00,
2013-01-01 14:35:00,31.5,25.1,29.94,East,90,0.0,0.0,77,0.00,CLR,,0.00,WeatherDisplay:10.37,2013-01-01 19:35:00,
2013-01-01 14:40:00,31.5,25.1,29.93,East,90,0.0,0.0,77,0.00,CLR,,0.00,WeatherDisplay:10.37,2013-01-01 19:40:00,
2013-01-01 14:45:00,31.5,25.1,29.93,East,90,0.0,0.0,77,0.00,CLR,,0.00,WeatherDisplay:10.37,2013-01-01 19:45:00,
2013-01-01 14:50:00,31.5,24.8,29.92,East,90,0.0,0.0,76,0.00,CLR,,0.00,WeatherDisplay:10.37,2013-01-01 19:50:00,
2013-01-01 14:55:00,31.5,24.8,29.92,East,90,0.0,0.0,76,0.00,CLR,,0.00,WeatherDisplay:10.37,2013-01-01 19:55:00,
2013-01-01 15:00:00,31.5,24.8,29.92,East,90,0.0,0.0,76,0.00,CLR,,0.00,WeatherDisplay:10.37,2013-01-01 20:00:00,
2013-01-01 15:10:00,31.3,24.3,29.94,East,90,0.0,0.0,75,0.00,CLR,,0.00,WeatherDisplay:10.37,2013-01-01 20:10:00,
2013-01-01 15:15:00,31.3,24.3,29.94,East,90,0.0,0.0,75,0.00,CLR,,0.00,WeatherDisplay:10.37,2013-01-01 20:15:00,
2013-01-01 15:20:00,31.2,24.2,29.93,East,90,0.0,0.0,75,0.00,CLR,,0.00,WeatherDisplay:10.37,2013-01-01 20:20:00,
2013-01-01 15:25:00,31.1,23.8,29.93,East,90,0.0,0.0,74,0.00,CLR,,0.00,WeatherDisplay:10.37,2013-01-01 20:25:00,
2013-01-01 15:30:00,31.1,23.8,29.93,East,90,0.0,0.0,74,0.00,CLR,,0.00,WeatherDisplay:10.37,2013-01-01 20:30:00,
2013-01-01 15:35:00,31.1,23.8,29.93,East,90,0.0,0.0,74,0.00,CLR,,0.00,WeatherDisplay:10.37,2013-01-01 20:35:00,
2013-01-01 15:40:00,30.9,23.6,29.93,East,90,0.0,0.0,74,0.00,CLR,,0.00,WeatherDisplay:10.37,2013-01-01 20:40:00,
2013-01-01 15:45:00,30.9,23.3,29.93,East,90,0.0,0.0,73,0.00,CLR,,0.00,WeatherDisplay:10.37,2013-01-01 20:45:00,
2013-01-01 15:50:00,30.8,23.2,29.95,East,90,0.0,0.0,73,0.00,CLR,,0.00,WeatherDisplay:10.37,2013-01-01 20:50:00,
2013-01-01 15:55:00,30.7,22.8,29.94,East,90,0.0,0.0,72,0.00,CLR,,0.00,WeatherDisplay:10.37,2013-01-01 20:55:00,
2013-01-01 16:00:00,30.7,22.8,29.95,East,90,0.0,0.0,72,0.00,CLR,,0.00,WeatherDisplay:10.37,2013-01-01 21:00:00,
2013-01-01 16:05:00,30.6,22.6,29.95,East,90,0.0,0.0,72,0.00,CLR,,0.00,WeatherDisplay:10.37,2013-01-01 21:05:00,
2013-01-01 16:15:00,30.4,22.1,29.96,East,90,0.0,0.0,71,0.00,CLR,,0.00,WeatherDisplay:10.37,2013-01-01 21:15:00,
2013-01-01 16:20:00,30.2,22.0,29.97,East,90,0.0,0.0,71,0.00,CLR,,0.00,WeatherDisplay:10.37,2013-01-01 21:20:00,
2013-01-01 16:30:00,29.8,21.6,29.96,East,90,0.0,0.0,71,0.00,CLR,,0.00,WeatherDisplay:10.37,2013-01-01 21:30:00,
2013-01-01 16:35:00,29.8,21.6,29.97,East,90,0.0,0.0,71,0.00,CLR,,0.00,WeatherDisplay:10.37,2013-01-01 21:35:00,
2013-01-01 16:45:00,29.3,21.1,29.97,East,90,0.0,0.0,71,0.00,CLR,,0.00,WeatherDisplay:10.37,2013-01-01 21:45:00,
2013-01-01 16:50:00,29.3,21.0,29.96,East,90,0.0,0.0,71,0.00,CLR,,0.00,WeatherDisplay:10.37,2013-01-01 21:50:00,
2013-01-01 16:55:00,29.1,20.9,29.96,East,90,0.0,0.0,71,0.00,CLR,,0.00,WeatherDisplay:10.37,2013-01-01 21:55:00,
2013-01-01 17:00:00,28.9,20.7,29.97,East,90,0.0,0.0,71,0.00,CLR,,0.00,WeatherDisplay:10.37,2013-01-01 22:00:00,
2013-01-01 17:05:00,28.8,20.5,29.97,East,90,0.0,0.0,71,0.00,CLR,,0.00,WeatherDisplay:10.37,2013-01-01 22:05:00,
2013-01-01 17:15:00,28.6,20.7,29.99,East,90,0.0,0.0,72,0.00,CLR,,0.00,WeatherDisplay:10.37,2013-01-01 22:15:00,
2013-01-01 17:20:00,28.0,19.8,29.97,East,90,0.0,0.0,71,0.00,CLR,,0.00,WeatherDisplay:10.37,2013-01-01 22:20:00,
2013-01-01 17:25:00,27.9,19.7,29.98,East,90,0.0,0.0,71,0.00,CLR,,0.00,WeatherDisplay:10.37,2013-01-01 22:25:00,
2013-01-01 17:30:00,27.5,19.3,29.98,East,90,0.0,0.0,71,0.00,CLR,,0.00,WeatherDisplay:10.37,2013-01-01 22:30:00,
2013-01-01 17:40:00,27.3,19.2,29.99,East,90,0.0,0.0,71,0.00,CLR,,0.00,WeatherDisplay:10.37,2013-01-01 22:40:00,
2013-01-01 17:45:00,27.3,19.1,29.99,East,90,0.0,0.0,71,0.00,CLR,,0.00,WeatherDisplay:10.37,2013-01-01 22:45:00,
2013-01-01 17:50:00,27.1,19.0,29.99,East,90,0.0,0.0,71,0.00,CLR,,0.00,WeatherDisplay:10.37,2013-01-01 22:50:00,
2013-01-01 17:55:00,27.0,18.8,29.99,East,90,0.0,0.0,71,0.00,CLR,,0.00,WeatherDisplay:10.37,2013-01-01 22:55:00,
2013-01-01 18:00:00,27.0,18.8,29.99,East,90,0.0,0.0,71,0.00,CLR,,0.00,WeatherDisplay:10.37,2013-01-01 23:00:00,
2013-01-01 18:10:00,26.8,18.6,29.98,East,90,0.0,0.0,71,0.00,CLR,,0.00,WeatherDisplay:10.37,2013-01-01 23:10:00,
2013-01-01 18:15:00,26.7,18.5,29.98,East,90,0.0,0.0,71,0.00,CLR,,0.00,WeatherDisplay:10.37,2013-01-01 23:15:00,
2013-01-01 18:20:00,26.4,18.3,29.98,East,90,0.0,0.0,71,0.00,CLR,,0.00,WeatherDisplay:10.37,2013-01-01 23:20:00,
2013-01-01 18:25:00,26.2,18.1,29.98,East,90,0.0,0.0,71,0.00,CLR,,0.00,WeatherDisplay:10.37,2013-01-01 23:25:00,
2013-01-01 18:35:00,26.2,18.1,29.99,ENE,69,0.0,0.0,71,0.00,CLR,,0.00,WeatherDisplay:10.37,2013-01-01 23:35:00,
2013-01-01 18:40:00,26.2,18.1,29.99,NE,39,0.0,0.0,71,0.00,CLR,,0.00,WeatherDisplay:10.37,2013-01-01 23:40:00,
2013-01-01 18:45:00,26.1,17.9,29.99,NNE,26,0.0,0.0,71,0.00,CLR,,0.00,WeatherDisplay:10.37,2013-01-01 23:45:00,
2013-01-01 18:50:00,26.1,17.9,29.99,NNE,22,0.0,0.0,71,0.00,CLR,,0.00,WeatherDisplay:10.37,2013-01-01 23:50:00,
2013-01-01 18:55:00,25.9,17.8,29.99,NNE,23,0.0,0.0,71,0.00,CLR,,0.00,WeatherDisplay:10.37,2013-01-01 23:55:00,
2013-01-01 19:00:00,25.7,17.6,30.00,NNE,22,0.0,0.0,71,0.00,CLR,,0.00,WeatherDisplay:10.37,2013-01-02 00:00:00,
2013-01-01 19:05:00,25.7,17.6,30.00,North,351,0.0,0.0,71,0.00,CLR,,0.00,WeatherDisplay:10.37,2013-01-02 00:05:00,
2013-01-01 19:10:00,25.5,17.4,30.00,NNW,338,0.0,0.0,71,0.00,CLR,,0.00,WeatherDisplay:10.37,2013-01-02 00:10:00,
2013-01-01 19:15:00,25.5,17.4,30.00,NNW,338,0.0,0.0,71,0.00,CLR,,0.00,WeatherDisplay:10.37,2013-01-02 00:15:00,
2013-01-01 19:20:00,25.5,17.4,30.00,NNW,338,0.0,0.0,71,0.00,CLR,,0.00,WeatherDisplay:10.37,2013-01-02 00:20:00,
2013-01-01 19:30:00,25.3,16.9,30.01,NNW,338,0.0,0.0,70,0.00,CLR,,0.00,WeatherDisplay:10.37,2013-01-02 00:30:00,
2013-01-01 19:35:00,25.3,16.9,30.01,NNW,338,0.0,0.0,70,0.00,CLR,,0.00,WeatherDisplay:10.37,2013-01-02 00:35:00,
2013-01-01 19:40:00,25.2,16.7,30.01,NNW,338,0.0,0.0,70,0.00,CLR,,0.00,WeatherDisplay:10.37,2013-01-02 00:40:00,
2013-01-01 19:45:00,25.2,16.8,30.01,NNW,338,0.0,0.0,70,0.00,CLR,,0.00,WeatherDisplay:10.37,2013-01-02 00:45:00,
2013-01-01 19:50:00,25.2,16.7,30.00,NNW,338,0.0,0.0,70,0.00,CLR,,0.00,WeatherDisplay:10.37,2013-01-02 00:50:00,
2013-01-01 19:55:00,25.2,16.7,30.00,NNW,338,0.0,0.0,70,0.00,CLR,,0.00,WeatherDisplay:10.37,2013-01-02 00:55:00,
2013-01-01 20:00:00,25.0,16.6,30.00,NNW,338,0.0,0.0,70,0.00,CLR,,0.00,WeatherDisplay:10.37,2013-01-02 01:00:00,
2013-01-01 20:05:00,25.0,16.6,30.00,North,350,0.0,0.0,70,0.00,CLR,,0.00,WeatherDisplay:10.37,2013-01-02 01:05:00,
2013-01-01 20:10:00,24.9,16.5,30.00,NNE,23,0.0,0.0,70,0.00,CLR,,0.00,WeatherDisplay:10.37,2013-01-02 01:10:00,
2013-01-01 20:15:00,24.6,16.2,30.00,NNE,16,0.0,0.0,70,0.00,CLR,,0.00,WeatherDisplay:10.37,2013-01-02 01:15:00,
2013-01-01 20:20:00,24.6,15.9,30.00,North,356,0.0,0.0,69,0.00,CLR,,0.00,WeatherDisplay:10.37,2013-01-02 01:20:00,
2013-01-01 20:25:00,24.6,15.9,30.00,North,356,0.0,0.0,69,0.00,CLR,,0.00,WeatherDisplay:10.37,2013-01-02 01:25:00,
2013-01-01 20:30:00,24.4,15.4,30.00,North,355,0.0,0.0,68,0.00,CLR,,0.00,WeatherDisplay:10.37,2013-01-02 01:30:00,
2013-01-01 20:35:00,24.3,15.2,30.00,North,349,0.0,0.0,68,0.00,CLR,,0.00,WeatherDisplay:10.37,2013-01-02 01:35:00,
2013-01-01 20:40:00,24.2,15.1,30.00,NNW,343,0.0,0.0,68,0.00,CLR,,0.00,WeatherDisplay:10.37,2013-01-02 01:40:00,
2013-01-01 20:45:00,23.9,14.6,30.00,NNW,338,0.0,0.0,67,0.00,CLR,,0.00,WeatherDisplay:10.37,2013-01-02 01:45:00,
2013-01-01 20:50:00,23.9,14.5,30.00,NNW,338,0.0,0.0,67,0.00,CLR,,0.00,WeatherDisplay:10.37,2013-01-02 01:50:00,
2013-01-01 20:55:00,23.7,14.4,30.01,NNW,338,0.0,0.0,67,0.00,CLR,,0.00,WeatherDisplay:10.37,2013-01-02 01:55:00,
2013-01-01 21:00:00,23.5,14.2,30.00,NNW,338,0.0,0.0,67,0.00,CLR,,0.00,WeatherDisplay:10.37,2013-01-02 02:00:00,
2013-01-01 21:05:00,23.5,14.2,30.01,NNW,338,0.0,0.0,67,0.00,CLR,,0.00,WeatherDisplay:10.37,2013-01-02 02:05:00,
2013-01-01 21:10:00,23.5,13.8,30.01,NNW,338,0.0,1.0,66,0.00,CLR,,0.00,WeatherDisplay:10.37,2013-01-02 02:10:00,
2013-01-01 21:20:00,23.4,13.7,30.01,NNW,338,0.0,0.0,66,0.00,CLR,,0.00,WeatherDisplay:10.37,2013-01-02 02:20:00,
2013-01-01 21:30:00,23.4,13.7,30.01,NNW,338,0.0,0.0,66,0.00,CLR,,0.00,WeatherDisplay:10.37,2013-01-02 02:30:00,
2013-01-01 21:35:00,23.2,13.5,30.00,NNW,338,0.0,0.0,66,0.00,CLR,,0.00,WeatherDisplay:10.37,2013-01-02 02:35:00,
2013-01-01 21:40:00,23.2,13.5,30.00,NNW,338,0.0,0.0,66,0.00,CLR,,0.00,WeatherDisplay:10.37,2013-01-02 02:40:00,
2013-01-01 21:45:00,23.2,13.5,30.00,NNW,338,0.0,0.0,66,0.00,CLR,,0.00,WeatherDisplay:10.37,2013-01-02 02:45:00,
2013-01-01 21:50:00,23.1,13.5,30.00,NNW,338,0.0,0.0,66,0.00,CLR,,0.00,WeatherDisplay:10.37,2013-01-02 02:50:00,
2013-01-01 21:55:00,23.2,13.5,30.01,NNW,338,0.0,0.0,66,0.00,CLR,,0.00,WeatherDisplay:10.37,2013-01-02 02:55:00,
2013-01-01 22:00:00,23.0,13.3,30.01,NNW,338,0.0,0.0,66,0.00,CLR,,0.00,WeatherDisplay:10.37,2013-01-02 03:00:00,
2013-01-01 22:05:00,22.8,12.8,30.02,NNW,338,0.0,0.0,65,0.00,CLR,,0.00,WeatherDisplay:10.37,2013-01-02 03:05:00,
2013-01-01 22:15:00,22.7,12.7,30.02,NNW,338,0.0,0.0,65,0.00,CLR,,0.00,WeatherDisplay:10.37,2013-01-02 03:15:00,
2013-01-01 22:20:00,22.6,12.6,30.01,NNW,338,0.0,0.0,65,0.00,CLR,,0.00,WeatherDisplay:10.37,2013-01-02 03:20:00,
2013-01-01 22:25:00,22.6,12.6,30.01,NNW,338,0.0,0.0,65,0.00,CLR,,0.00,WeatherDisplay:10.37,2013-01-02 03:25:00,
2013-01-01 22:30:00,22.6,13.0,30.02,NNW,338,0.0,0.0,66,0.00,CLR,,0.00,WeatherDisplay:10.37,2013-01-02 03:30:00,
2013-01-01 22:35:00,22.5,12.8,30.02,NNW,338,0.0,0.0,66,0.00,CLR,,0.00,WeatherDisplay:10.37,2013-01-02 03:35:00,
2013-01-01 22:40:00,22.5,12.8,30.02,NNW,338,0.0,0.0,66,0.00,CLR,,0.00,WeatherDisplay:10.37,2013-01-02 03:40:00,
2013-01-01 22:50:00,22.2,12.6,30.02,NNW,338,0.0,0.0,66,0.00,CLR,,0.00,WeatherDisplay:10.37,2013-01-02 03:50:00,
2013-01-01 22:55:00,22.1,12.5,30.02,NNW,333,0.0,0.0,66,0.00,CLR,,0.00,WeatherDisplay:10.37,2013-01-02 03:55:00,
2013-01-01 23:00:00,21.9,12.3,30.03,NNW,334,0.0,0.0,66,0.00,CLR,,0.00,WeatherDisplay:10.37,2013-01-02 04:00:00,
2013-01-01 23:05:00,21.9,12.3,30.02,NNW,332,0.0,0.0,66,0.00,CLR,,0.00,WeatherDisplay:10.37,2013-01-02 04:05:00,
2013-01-01 23:10:00,21.7,12.1,30.03,NW,323,0.0,0.0,66,0.00,CLR,,0.00,WeatherDisplay:10.37,2013-01-02 04:10:00,
2013-01-01 23:15:00,21.6,11.9,30.02,NW,317,0.0,0.0,66,0.00,CLR,,0.00,WeatherDisplay:10.37,2013-01-02 04:15:00,
2013-01-01 23:20:00,21.4,11.8,30.03,NW,315,0.0,0.0,66,0.00,CLR,,0.00,WeatherDisplay:10.37,2013-01-02 04:20:00,
2013-01-01 23:25:00,21.4,11.8,30.03,NW,315,0.0,0.0,66,0.00,CLR,,0.00,WeatherDisplay:10.37,2013-01-02 04:25:00,
2013-01-01 23:30:00,21.0,11.4,30.02,NW,315,0.0,0.0,66,0.00,CLR,,0.00,WeatherDisplay:10.37,2013-01-02 04:30:00,
2013-01-01 23:35:00,20.8,11.3,30.03,NW,315,0.0,0.0,66,0.00,CLR,,0.00,WeatherDisplay:10.37,2013-01-02 04:35:00,
2013-01-01 23:40:00,20.7,11.1,30.03,NW,323,0.0,0.0,66,0.00,CLR,,0.00,WeatherDisplay:10.37,2013-01-02 04:40:00,
2013-01-01 23:45:00,20.7,11.1,30.02,NNW,335,0.0,0.0,66,0.00,CLR,,0.00,WeatherDisplay:10.37,2013-01-02 04:45:00,
2013-01-01 23:55:00,20.3,10.7,30.03,NW,321,0.0,0.0,66,0.00,CLR,,0.00,WeatherDisplay:10.37,2013-01-02 04:55:00,